Skip Page Navigation
NASA JPL Caltech
NASA Logo - Jet Propulsion Laboratory + View the NASA Portal
+ Center for Near-Earth Object Studies
JPL Home Earth Solar System Stars & Galaxies Technology
JPL Solar System Dynamics
BODIES ORBITS EPHEMERIDES TOOLS PHYSICAL DATA DISCOVERY FAQ SITE MAP
JPL Small-Body Database Browser
Search: [ help ]  
392468 (2011 CF70)
Classification: Main-belt Asteroid          SPK-ID: 2392468
Ephemeris | Orbit Diagram | Orbital Elements | Mission Design | Physical Parameters | Discovery Circumstances | Close-Approach Data ]

[ show orbit diagram ]
Orbital Elements at Epoch 2459000.5 (2020-May-31.0) TDB
Reference: JPL 20 (heliocentric ecliptic J2000)
 Element Value Uncertainty (1-sigma)   Units 
e .07322301787691263 7.3038e-08  
a 2.393292538675992 1.9422e-08 au
q 2.218048436331839 1.6936e-07 au
i 6.385779332127541 5.6547e-06 deg
node 44.39688054344683 5.3264e-05 deg
peri 110.3912321440275 6.6287e-05 deg
M 166.2377385853795 4.3292e-05 deg
tp 2458376.019000960900
(2018-Sep-14.51900096)
0.00015795 TDB
period 1352.359347324808
3.70
1.6462e-05
4.507e-08
d
yr
n .2662014358181795 3.2405e-09 deg/d
Q 2.568536641020146 2.0845e-08 au
  Orbit Determination Parameters
   # obs. used (total)      282  
   data-arc span      8067 days (22.09 yr)  
   first obs. used      1998-09-19  
   last obs. used      2020-10-20  
   planetary ephem.      DE431  
   SB-pert. ephem.      SB431-N16  
   condition code      0  
   norm. resid. RMS      .59004  
   source      ORB  
   producer      Otto Matic  
   solution date      2020-Nov-12 16:25:05  

Additional Information
 Earth MOID = 1.23639 au 
 Jupiter MOID = 2.41859 au 
 T_jup = 3.519 
[ show covariance matrix ]

Ephemeris | Orbit Diagram | Orbital Elements | Mission Design | Physical Parameters | Discovery Circumstances | Close-Approach Data ]

Physical Parameter Table
Parameter Symbol Value Units Sigma Reference Notes
absolute magnitude H 16.8   n/a MPO476851  

392468 (2011 CF70)          Discovered 2011-Feb-05 by CSS at Catalina
Reference: Last Updated: 2014-04-17

[ show close-approach data ]
Ephemeris | Orbit Diagram | Orbital Elements | Mission Design | Physical Parameters | Discovery Circumstances | Close-Approach Data ]
ABOUT SSD CREDITS/AWARDS PRIVACY/COPYRIGHT GLOSSARY LINKS
FirstGov 2020-Nov-30 17:26 UT
(server date/time)  
NASA Home Page
Site Manager:   Ryan S. Park
Webmaster  Alan B. Chamberlin